| time (UTC) | temp F | wind direction | speed knots | gust knots | rain 1hr in | rain 24hr in | rain mn in | humidity % | barometer mb |
| 20260510075759 | 46 | 64 | 3.5 | 6.1 | 0.00 | 0.00 | 0.00 | 58 | 1014.0 |
| 20260510075039 | 46 | 76 | 4.3 | 7.8 | 0.00 | 0.00 | 0.00 | 58 | 1014.0 |
| 20260510074539 | 47 | 79 | 4.3 | 7.8 | 0.00 | 0.00 | 0.00 | 57 | 1014.0 |
| 20260510074256 | 47 | 82 | 7.0 | 11.3 | 0.00 | 0.00 | 0.00 | 57 | 1014.0 |
| 20260510073538 | 47 | 75 | 5.2 | 11.3 | 0.00 | 0.00 | 0.00 | 57 | 1013.7 |
| 20260510073037 | 47 | 77 | 4.3 | 9.6 | 0.00 | 0.00 | 0.00 | 57 | 1013.7 |
| 20260510072536 | 47 | 78 | 6.1 | 8.7 | 0.00 | 0.00 | 0.00 | 56 | 1013.7 |
| 20260510072259 | 48 | 75 | 6.1 | 7.8 | 0.00 | 0.00 | 0.00 | 57 | 1013.7 |
| 20260510071535 | 48 | 74 | 5.2 | 9.6 | 0.00 | 0.00 | 0.00 | 56 | 1013.7 |
| 20260510071036 | 48 | 95 | 5.2 | 9.6 | 0.00 | 0.00 | 0.00 | 56 | 1013.7 |
| 20260510070535 | 48 | 57 | 5.2 | 9.6 | 0.00 | 0.00 | 0.00 | 56 | 1013.3 |
| 20260510070034 | 48 | 86 | 4.3 | 10.4 | 0.00 | 0.00 | 0.00 | 57 | 1013.3 |
| 20260510065535 | 48 | 75 | 3.5 | 10.4 | 0.00 | 0.00 | 0.00 | 58 | 1013.3 |
| 20260510065035 | 48 | 64 | 3.5 | 6.1 | 0.00 | 0.00 | 0.00 | 60 | 1012.9 |
| 20260510064533 | 47 | 20 | 2.6 | 5.2 | 0.00 | 0.00 | 0.00 | 62 | 1012.9 |
| 20260510064031 | 46 | 42 | 2.6 | 5.2 | 0.00 | 0.00 | 0.00 | 65 | 1012.9 |
| 20260510063531 | 45 | 38 | 2.6 | 2.6 | 0.00 | 0.00 | 0.00 | 71 | 1012.9 |
| 20260510063033 | 44 | 30 | 2.6 | 2.6 | 0.00 | 0.00 | 0.00 | 74 | 1012.9 |
| 20260510062532 | 44 | 17 | 0.9 | 1.7 | 0.00 | 0.00 | 0.00 | 73 | 1012.5 |
| 20260510062031 | 45 | 8 | 0.9 | 1.7 | 0.00 | 0.00 | 0.00 | 73 | 1012.5 |
| 20260510061530 | 45 | 32 | 0.0 | 0.9 | 0.00 | 0.00 | 0.00 | 73 | 1012.5 |
| 20260510061030 | 45 | 52 | 0.0 | 0.9 | 0.00 | 0.00 | 0.00 | 73 | 1012.5 |
| 20260510061012 | 46 | 49 | 0.0 | 0.9 | 0.00 | 0.00 | 0.00 | 72 | 1012.5 |
| 20260510060512 | 46 | 66 | 0.0 | 0.9 | 0.00 | 0.00 | 0.00 | 69 | 1012.5 |
| 20260510055528 | 46 | 146 | 0.0 | 0.9 | 0.00 | 0.00 | 0.00 | 69 | 1012.2 |
| 20260510055027 | 47 | 63 | 0.0 | 0.9 | 0.00 | 0.00 | 0.00 | 70 | 1012.2 |
| 20260510054529 | 47 | 41 | 0.0 | 0.9 | 0.00 | 0.00 | 0.00 | 68 | 1012.2 |
| 20260510054028 | 47 | 36 | 0.9 | 1.7 | 0.00 | 0.00 | 0.00 | 68 | 1012.2 |
| 20260510053524 | 48 | 51 | 0.0 | 1.7 | 0.00 | 0.00 | 0.00 | 67 | 1011.9 |
| 20260510053024 | 48 | 45 | 0.0 | 0.9 | 0.00 | 0.00 | 0.00 | 66 | 1011.9 |
| 20260510052525 | 48 | 89 | 0.0 | 0.9 | 0.00 | 0.00 | 0.00 | 67 | 1011.9 |
| 20260510052508 | 49 | 74 | 0.0 | 0.9 | 0.00 | 0.00 | 0.00 | 64 | 1011.9 |
| 20260510051522 | 49 | 132 | 0.0 | 0.9 | 0.00 | 0.00 | 0.00 | 65 | 1011.5 |
| 20260510051022 | 49 | 55 | 0.0 | 0.9 | 0.00 | 0.00 | 0.00 | 62 | 1011.9 |
| 20260510050522 | 49 | 25 | 0.0 | 0.9 | 0.00 | 0.00 | 0.00 | 63 | 1011.9 |
| 20260510050024 | 49 | 60 | 0.0 | 2.6 | 0.00 | 0.00 | 0.00 | 62 | 1011.5 |
| 20260510045522 | 50 | 36 | 0.0 | 2.6 | 0.00 | 0.00 | 0.00 | 64 | 1011.5 |
| 20260510045246 | 50 | 48 | 0.0 | 2.6 | 0.00 | 0.00 | 0.00 | 64 | 1011.5 |
| 20260510044526 | 50 | 47 | 0.0 | 1.7 | 0.00 | 0.00 | 0.00 | 65 | 1011.2 |
| 20260510044519 | 50 | 66 | 0.0 | 2.6 | 0.00 | 0.00 | 0.00 | 64 | 1011.2 |
| 20260510043520 | 50 | 42 | 1.7 | 2.6 | 0.00 | 0.00 | 0.00 | 65 | 1011.2 |
| 20260510043243 | 50 | 69 | 0.0 | 2.6 | 0.00 | 0.00 | 0.00 | 65 | 1011.2 |
| 20260510042519 | 50 | 62 | 1.7 | 1.7 | 0.00 | 0.00 | 0.00 | 65 | 1011.2 |
| 20260510042019 | 50 | 31 | 0.9 | 0.9 | 0.00 | 0.00 | 0.00 | 65 | 1010.9 |
| 20260510041516 | 51 | 44 | 0.0 | 0.9 | 0.00 | 0.00 | 0.00 | 65 | 1010.9 |
| 20260510041019 | 51 | 49 | 0.0 | 1.7 | 0.00 | 0.00 | 0.00 | 63 | 1010.9 |
| 20260510040517 | 51 | 34 | 0.9 | 1.7 | 0.00 | 0.00 | 0.00 | 62 | 1010.9 |
| 20260510040240 | 51 | 147 | 0.0 | 0.9 | 0.00 | 0.00 | 0.00 | 63 | 1010.5 |
| 20260510035513 | 51 | 38 | 0.0 | 0.9 | 0.00 | 0.00 | 0.00 | 64 | 1010.5 |
| 20260510035013 | 51 | 44 | 0.0 | 0.9 | 0.00 | 0.00 | 0.00 | 64 | 1010.5 |
| 20260510034513 | 51 | 22 | 0.0 | 0.9 | 0.00 | 0.00 | 0.00 | 64 | 1010.5 |
| 20260510034238 | 51 | 341 | 0.0 | 0.9 | 0.00 | 0.00 | 0.00 | 68 | 1010.5 |
| 20260510033511 | 51 | 13 | 0.0 | 0.9 | 0.00 | 0.00 | 0.00 | 65 | 1010.5 |
| 20260510033011 | 52 | 32 | 0.0 | 1.7 | 0.00 | 0.00 | 0.00 | 64 | 1010.2 |
| 20260510032511 | 52 | 135 | 0.0 | 1.7 | 0.00 | 0.00 | 0.00 | 62 | 1010.2 |
| 20260510032239 | 52 | 22 | 0.0 | 1.7 | 0.00 | 0.00 | 0.00 | 63 | 1010.2 |
| 20260510031511 | 52 | 32 | 0.0 | 1.7 | 0.00 | 0.00 | 0.00 | 64 | 1009.8 |
| 20260510031010 | 52 | 32 | 0.0 | 1.7 | 0.00 | 0.00 | 0.00 | 62 | 1009.8 |
| 20260510030730 | 53 | 354 | 0.0 | 0.9 | 0.00 | 0.00 | 0.00 | 62 | 1009.8 |
| 20260510030010 | 53 | 44 | 0.0 | 0.9 | 0.00 | 0.00 | 0.00 | 62 | 1009.8 |
| 20260510025508 | 53 | 85 | 0.9 | 0.9 | 0.00 | 0.00 | 0.00 | 63 | 1009.8 |
| 20260510025007 | 53 | 32 | 0.0 | 0.9 | 0.00 | 0.00 | 0.00 | 60 | 1009.8 |
| 20260510024508 | 54 | 135 | 0.0 | 0.9 | 0.00 | 0.00 | 0.00 | 59 | 1009.8 |
| 20260510024008 | 54 | 150 | 0.0 | 1.7 | 0.00 | 0.00 | 0.00 | 57 | 1009.4 |
| 20260510023723 | 55 | 17 | 0.0 | 1.7 | 0.00 | 0.00 | 0.00 | 57 | 1009.1 |
| 20260510023223 | 55 | 61 | 0.9 | 1.7 | 0.00 | 0.00 | 0.00 | 56 | 1009.4 |
| 20260510022505 | 55 | 195 | 0.0 | 1.7 | 0.00 | 0.00 | 0.00 | 56 | 1009.1 |
| 20260510022005 | 56 | 186 | 0.0 | 1.7 | 0.00 | 0.00 | 0.00 | 57 | 1009.1 |
| 20260510021508 | 57 | 216 | 0.0 | 5.2 | 0.00 | 0.00 | 0.00 | 56 | 1009.1 |
| 20260510021002 | 57 | 256 | 0.9 | 5.2 | 0.00 | 0.00 | 0.00 | 54 | 1009.1 |
| 20260510020502 | 57 | 68 | 0.9 | 1.7 | 0.00 | 0.00 | 0.00 | 54 | 1008.7 |
| 20260510020003 | 58 | 60 | 0.0 | 1.7 | 0.00 | 0.00 | 0.00 | 54 | 1008.7 |
| 20260510015503 | 58 | 40 | 0.0 | 2.6 | 0.00 | 0.00 | 0.00 | 50 | 1008.4 |
| 20260510015000 | 59 | 235 | 0.0 | 2.6 | 0.00 | 0.00 | 0.00 | 49 | 1008.4 |
| 20260510014725 | 59 | 18 | 1.7 | 2.6 | 0.00 | 0.00 | 0.00 | 47 | 1008.0 |
| 20260510014001 | 60 | 0 | 0.0 | 2.6 | 0.00 | 0.00 | 0.00 | 45 | 1008.0 |
| 20260510013500 | 60 | 39 | 0.9 | 2.6 | 0.00 | 0.00 | 0.00 | 46 | 1007.7 |
| 20260510012959 | 60 | 84 | 1.7 | 2.6 | 0.00 | 0.00 | 0.00 | 44 | 1008.0 |
| 20260510012459 | 61 | 23 | 1.7 | 2.6 | 0.00 | 0.00 | 0.00 | 40 | 1007.7 |
| 20260510011957 | 62 | 325 | 1.7 | 3.5 | 0.00 | 0.00 | 0.00 | 40 | 1007.7 |
| 20260510011457 | 62 | 314 | 1.7 | 3.5 | 0.00 | 0.00 | 0.00 | 38 | 1007.4 |
| 20260510010957 | 62 | 276 | 0.9 | 2.6 | 0.00 | 0.00 | 0.00 | 38 | 1007.4 |
| 20260510010457 | 63 | 177 | 0.0 | 3.5 | 0.00 | 0.00 | 0.00 | 38 | 1007.4 |
| 20260510005956 | 63 | 326 | 0.0 | 5.2 | 0.00 | 0.00 | 0.00 | 38 | 1007.0 |
| 20260510005736 | 63 | 133 | 1.7 | 5.2 | 0.00 | 0.00 | 0.00 | 38 | 1007.0 |
| 20260510004958 | 63 | 14 | 0.0 | 3.5 | 0.00 | 0.00 | 0.00 | 39 | 1007.0 |
| 20260510004453 | 64 | 333 | 1.7 | 3.5 | 0.00 | 0.00 | 0.00 | 38 | 1006.7 |
| 20260510004212 | 64 | 22 | 0.9 | 3.5 | 0.00 | 0.00 | 0.00 | 38 | 1006.7 |
| 20260510003719 | 64 | 168 | 1.7 | 3.5 | 0.00 | 0.00 | 0.00 | 37 | 1006.7 |
| 20260510002952 | 65 | 337 | 0.9 | 3.5 | 0.00 | 0.00 | 0.00 | 37 | 1006.7 |
| 20260510002712 | 65 | 340 | 1.7 | 5.2 | 0.00 | 0.00 | 0.00 | 36 | 1006.3 |
| 20260510001954 | 66 | 325 | 2.6 | 7.8 | 0.00 | 0.00 | 0.00 | 35 | 1006.3 |
| 20260510001450 | 66 | 217 | 1.7 | 7.8 | 0.00 | 0.00 | 0.00 | 36 | 1006.3 |
| 20260510000951 | 66 | 41 | 1.7 | 7.0 | 0.00 | 0.00 | 0.00 | 37 | 1006.3 |
| 20260510000714 | 67 | 232 | 3.5 | 7.0 | 0.00 | 0.00 | 0.00 | 37 | 1006.0 |
| 20260509235950 | 67 | 305 | 3.5 | 7.8 | 0.00 | 0.00 | 0.00 | 37 | 1006.0 |
| 20260509235449 | 67 | 286 | 3.5 | 4.3 | 0.00 | 0.00 | 0.00 | 37 | 1006.0 |
| 20260509234948 | 68 | 281 | 1.7 | 5.2 | 0.00 | 0.00 | 0.00 | 38 | 1005.6 |
| 20260509234448 | 68 | 355 | 0.9 | 5.2 | 0.00 | 0.00 | 0.00 | 37 | 1005.6 |
| 20260509233950 | 68 | 311 | 2.6 | 7.0 | 0.00 | 0.00 | 0.00 | 36 | 1005.6 |
| 20260509233446 | 69 | 342 | 1.7 | 7.0 | 0.00 | 0.00 | 0.00 | 36 | 1005.2 |
| 20260509232947 | 69 | 334 | 3.5 | 7.0 | 0.00 | 0.00 | 0.00 | 35 | 1005.2 |
| 20260509232446 | 69 | 290 | 2.6 | 9.6 | 0.00 | 0.00 | 0.00 | 33 | 1005.2 |
| 20260509231948 | 69 | 335 | 3.5 | 9.6 | 0.00 | 0.00 | 0.00 | 35 | 1005.2 |
| 20260509231444 | 69 | 266 | 2.6 | 7.8 | 0.00 | 0.00 | 0.00 | 35 | 1005.2 |
| 20260509230945 | 69 | 301 | 2.6 | 5.2 | 0.00 | 0.00 | 0.00 | 36 | 1005.2 |
| 20260509230455 | 69 | 299 | 4.3 | 6.1 | 0.00 | 0.00 | 0.00 | 35 | 1004.9 |
| 20260509225942 | 69 | 329 | 2.6 | 7.8 | 0.00 | 0.00 | 0.00 | 37 | 1004.9 |
| 20260509225442 | 69 | 260 | 2.6 | 8.7 | 0.00 | 0.00 | 0.00 | 36 | 1004.9 |
| 20260509225210 | 70 | 242 | 1.7 | 8.7 | 0.00 | 0.00 | 0.00 | 36 | 1004.9 |
| 20260509224440 | 70 | 53 | 1.7 | 7.0 | 0.00 | 0.00 | 0.00 | 38 | 1004.9 |
| 20260509224211 | 70 | 265 | 0.9 | 9.6 | 0.00 | 0.00 | 0.00 | 38 | 1004.9 |
| 20260509223440 | 70 | 326 | 3.5 | 9.6 | 0.00 | 0.00 | 0.00 | 35 | 1004.6 |
| 20260509222940 | 70 | 264 | 5.2 | 7.0 | 0.00 | 0.00 | 0.00 | 37 | 1004.6 |
| 20260509222442 | 70 | 345 | 1.7 | 10.4 | 0.00 | 0.00 | 0.00 | 36 | 1004.6 |
| 20260509221938 | 70 | 321 | 4.3 | 10.4 | 0.00 | 0.00 | 0.00 | 36 | 1004.6 |
| 20260509221439 | 70 | 279 | 2.6 | 8.7 | 0.00 | 0.00 | 0.00 | 35 | 1004.6 |
| 20260509220940 | 70 | 333 | 4.3 | 8.7 | 0.00 | 0.00 | 0.00 | 36 | 1004.6 |
| 20260509220437 | 71 | 310 | 5.2 | 7.8 | 0.00 | 0.00 | 0.00 | 35 | 1004.6 |
| 20260509215936 | 71 | 328 | 2.6 | 8.7 | 0.00 | 0.00 | 0.00 | 36 | 1004.6 |
| 20260509215437 | 71 | 48 | 6.1 | 8.7 | 0.00 | 0.00 | 0.00 | 37 | 1004.2 |
| 20260509215204 | 71 | 235 | 6.1 | 8.7 | 0.00 | 0.00 | 0.00 | 35 | 1004.2 |
| 20260509214435 | 71 | 343 | 3.5 | 8.7 | 0.00 | 0.00 | 0.00 | 33 | 1004.2 |
| 20260509213936 | 72 | 228 | 2.6 | 8.7 | 0.00 | 0.00 | 0.00 | 35 | 1004.2 |
| 20260509213435 | 71 | 331 | 1.7 | 8.7 | 0.00 | 0.00 | 0.00 | 34 | 1003.9 |
| 20260509212933 | 71 | 266 | 3.5 | 13.0 | 0.00 | 0.00 | 0.00 | 36 | 1003.9 |
| 20260509212434 | 71 | 244 | 4.3 | 13.0 | 0.00 | 0.00 | 0.00 | 34 | 1004.2 |
| 20260509211933 | 72 | 304 | 3.5 | 11.3 | 0.00 | 0.00 | 0.00 | 33 | 1003.9 |
| 20260509211919 | 72 | 248 | 3.5 | 11.3 | 0.00 | 0.00 | 0.00 | 31 | 1003.9 |
| 20260509210932 | 72 | 269 | 1.7 | 13.0 | 0.00 | 0.00 | 0.00 | 30 | 1003.9 |
| 20260509210430 | 72 | 306 | 3.5 | 13.0 | 0.00 | 0.00 | 0.00 | 32 | 1003.9 |
| 20260509205931 | 72 | 264 | 6.1 | 11.3 | 0.00 | 0.00 | 0.00 | 33 | 1003.5 |
| 20260509205431 | 73 | 317 | 6.1 | 8.7 | 0.00 | 0.00 | 0.00 | 32 | 1003.5 |
| 20260509204928 | 72 | 318 | 3.5 | 10.4 | 0.00 | 0.00 | 0.00 | 34 | 1003.5 |
| 20260509204649 | 72 | 359 | 2.6 | 10.4 | 0.00 | 0.00 | 0.00 | 31 | 1003.5 |
| 20260509203928 | 73 | 311 | 3.5 | 10.4 | 0.00 | 0.00 | 0.00 | 36 | 1003.5 |
| 20260509203427 | 72 | 296 | 4.3 | 10.4 | 0.00 | 0.00 | 0.00 | 34 | 1003.5 |
| 20260509202928 | 72 | 272 | 3.5 | 10.4 | 0.00 | 0.00 | 0.00 | 34 | 1003.5 |
| 20260509202427 | 72 | 265 | 2.6 | 12.2 | 0.00 | 0.00 | 0.00 | 33 | 1003.5 |
| 20260509201927 | 73 | 203 | 5.2 | 12.2 | 0.00 | 0.00 | 0.00 | 33 | 1003.5 |
| 20260509201426 | 73 | 235 | 5.2 | 12.2 | 0.00 | 0.00 | 0.00 | 34 | 1003.5 |
| 20260509200924 | 72 | 261 | 9.6 | 13.0 | 0.00 | 0.00 | 0.00 | 32 | 1003.5 |
| 20260509200424 | 72 | 259 | 4.3 | 14.8 | 0.00 | 0.00 | 0.00 | 35 | 1003.5 |
| 20260509195924 | 72 | 255 | 4.3 | 14.8 | 0.00 | 0.00 | 0.00 | 36 | 1003.5 |
| 20260509195422 | 73 | 269 | 6.1 | 10.4 | 0.00 | 0.00 | 0.00 | 34 | 1003.5 |
| 20260509194923 | 73 | 203 | 3.5 | 10.4 | 0.00 | 0.00 | 0.00 | 35 | 1003.5 |
| 20260509194421 | 73 | 240 | 3.5 | 12.2 | 0.00 | 0.00 | 0.00 | 35 | 1003.5 |
| 20260509194140 | 73 | 195 | 3.5 | 12.2 | 0.00 | 0.00 | 0.00 | 34 | 1003.5 |
| 20260509193422 | 72 | 300 | 2.6 | 8.7 | 0.00 | 0.00 | 0.00 | 34 | 1003.5 |
| 20260509192932 | 71 | 317 | 1.7 | 12.2 | 0.00 | 0.00 | 0.00 | 35 | 1003.5 |
| 20260509192922 | 71 | 234 | 2.6 | 8.7 | 0.00 | 0.00 | 0.00 | 34 | 1003.5 |
| 20260509191920 | 70 | 258 | 9.6 | 14.8 | 0.00 | 0.00 | 0.00 | 34 | 1003.5 |
| 20260509191418 | 69 | 253 | 3.5 | 13.9 | 0.00 | 0.00 | 0.00 | 36 | 1003.5 |
| 20260509190921 | 70 | 302 | 2.6 | 13.9 | 0.00 | 0.00 | 0.00 | 35 | 1003.5 |
| 20260509190420 | 70 | 238 | 1.7 | 13.9 | 0.00 | 0.00 | 0.00 | 35 | 1003.5 |
| 20260509185919 | 70 | 253 | 3.5 | 14.8 | 0.00 | 0.00 | 0.00 | 34 | 1003.5 |
| 20260509185655 | 70 | 245 | 2.6 | 14.8 | 0.00 | 0.00 | 0.00 | 33 | 1003.5 |
| 20260509184916 | 70 | 278 | 5.2 | 14.8 | 0.00 | 0.00 | 0.00 | 35 | 1003.5 |
| 20260509184635 | 70 | 266 | 4.3 | 11.3 | 0.00 | 0.00 | 0.00 | 34 | 1003.5 |
| 20260509183915 | 70 | 259 | 5.2 | 13.9 | 0.00 | 0.00 | 0.00 | 33 | 1003.5 |
| 20260509183418 | 70 | 268 | 3.5 | 21.7 | 0.00 | 0.00 | 0.00 | 34 | 1003.2 |
| 20260509183131 | 71 | 263 | 4.3 | 21.7 | 0.00 | 0.00 | 0.00 | 33 | 1003.2 |
| 20260509182414 | 71 | 234 | 7.8 | 10.4 | 0.00 | 0.00 | 0.00 | 33 | 1003.5 |
| 20260509181913 | 71 | 222 | 4.3 | 10.4 | 0.00 | 0.00 | 0.00 | 33 | 1003.5 |
| 20260509181413 | 69 | 295 | 5.2 | 8.7 | 0.00 | 0.00 | 0.00 | 35 | 1003.2 |
| 20260509180912 | 69 | 258 | 0.9 | 7.8 | 0.00 | 0.00 | 0.00 | 36 | 1003.2 |
| 20260509180411 | 69 | 318 | 2.6 | 7.8 | 0.00 | 0.00 | 0.00 | 35 | 1003.5 |
| 20260509175913 | 69 | 264 | 3.5 | 9.6 | 0.00 | 0.00 | 0.00 | 36 | 1003.5 |
| 20260509175629 | 69 | 265 | 1.7 | 9.6 | 0.00 | 0.00 | 0.00 | 33 | 1003.5 |
| 20260509174909 | 69 | 290 | 1.7 | 6.1 | 0.00 | 0.00 | 0.00 | 34 | 1003.5 |
| 20260509174635 | 69 | 259 | 2.6 | 11.3 | 0.00 | 0.00 | 0.00 | 34 | 1003.9 |
| 20260509173909 | 69 | 260 | 1.7 | 11.3 | 0.00 | 0.00 | 0.00 | 34 | 1003.9 |
| 20260509173411 | 69 | 224 | 2.6 | 7.0 | 0.00 | 0.00 | 0.00 | 35 | 1003.5 |
| 20260509172908 | 69 | 233 | 5.2 | 11.3 | 0.00 | 0.00 | 0.00 | 36 | 1003.9 |
| 20260509172410 | 69 | 247 | 8.7 | 11.3 | 0.00 | 0.00 | 0.00 | 35 | 1003.5 |
| 20260509172357 | 69 | 328 | 1.7 | 8.7 | 0.00 | 0.00 | 0.00 | 36 | 1003.9 |
| 20260509171406 | 69 | 262 | 5.2 | 8.7 | 0.00 | 0.00 | 0.00 | 35 | 1003.5 |
| 20260509170908 | 69 | 215 | 2.6 | 7.8 | 0.00 | 0.00 | 0.00 | 34 | 1003.9 |
| 20260509170404 | 69 | 341 | 3.5 | 9.6 | 0.00 | 0.00 | 0.00 | 36 | 1003.9 |
| 20260509165906 | 69 | 231 | 5.2 | 9.6 | 0.00 | 0.00 | 0.00 | 34 | 1003.9 |
| 20260509165404 | 69 | 309 | 4.3 | 9.6 | 0.00 | 0.00 | 0.00 | 36 | 1003.9 |
| 20260509164903 | 69 | 58 | 2.6 | 9.6 | 0.00 | 0.00 | 0.00 | 39 | 1003.9 |
| 20260509164630 | 68 | 265 | 3.5 | 9.6 | 0.00 | 0.00 | 0.00 | 39 | 1003.5 |
| 20260509163905 | 68 | 294 | 5.2 | 9.6 | 0.00 | 0.00 | 0.00 | 40 | 1003.9 |
| 20260509163402 | 68 | 242 | 3.5 | 6.1 | 0.00 | 0.00 | 0.00 | 42 | 1003.9 |
| 20260509163123 | 68 | 313 | 3.5 | 7.0 | 0.00 | 0.00 | 0.00 | 41 | 1003.9 |
| 20260509162622 | 68 | 335 | 6.1 | 7.0 | 0.00 | 0.00 | 0.00 | 42 | 1003.5 |
| 20260509161901 | 68 | 274 | 2.6 | 7.8 | 0.00 | 0.00 | 0.00 | 44 | 1003.5 |
| 20260509161400 | 67 | 326 | 2.6 | 7.8 | 0.00 | 0.00 | 0.00 | 43 | 1003.5 |
| 20260509161119 | 67 | 311 | 4.3 | 7.8 | 0.00 | 0.00 | 0.00 | 48 | 1003.9 |
| 20260509160400 | 67 | 220 | 3.5 | 7.8 | 0.00 | 0.00 | 0.00 | 46 | 1003.5 |
| 20260509160126 | 67 | 302 | 3.5 | 5.2 | 0.00 | 0.00 | 0.00 | 46 | 1003.5 |
| 20260509155357 | 66 | 242 | 2.6 | 5.2 | 0.00 | 0.00 | 0.00 | 47 | 1003.5 |
| 20260509154857 | 66 | 229 | 3.5 | 7.8 | 0.00 | 0.00 | 0.00 | 46 | 1003.9 |
| 20260509154358 | 66 | 356 | 2.6 | 10.4 | 0.00 | 0.00 | 0.00 | 49 | 1003.5 |
| 20260509153856 | 66 | 205 | 3.5 | 10.4 | 0.00 | 0.00 | 0.00 | 49 | 1003.5 |
| 20260509153616 | 66 | 298 | 4.3 | 6.1 | 0.00 | 0.00 | 0.00 | 48 | 1003.5 |
| 20260509152946 | 65 | 218 | 1.7 | 7.0 | 0.00 | 0.00 | 0.00 | 56 | 1003.5 |
| 20260509152856 | 66 | 242 | 4.3 | 6.1 | 0.00 | 0.00 | 0.00 | 53 | 1003.5 |
| 20260509152357 | 65 | 220 | 3.5 | 5.2 | 0.00 | 0.00 | 0.00 | 52 | 1003.5 |
| 20260509152120 | 65 | 288 | 4.3 | 5.2 | 0.00 | 0.00 | 0.00 | 51 | 1003.5 |
| 20260509150853 | 64 | 267 | 2.6 | 7.8 | 0.00 | 0.00 | 0.00 | 58 | 1003.5 |
| 20260509150353 | 64 | 200 | 1.7 | 7.8 | 0.00 | 0.00 | 0.00 | 57 | 1003.5 |
| 20260509145854 | 64 | 209 | 3.5 | 6.1 | 0.00 | 0.00 | 0.00 | 58 | 1003.5 |
| 20260509145352 | 64 | 276 | 1.7 | 6.1 | 0.00 | 0.00 | 0.00 | 56 | 1003.5 |
| 20260509144351 | 62 | 209 | 4.3 | 7.0 | 0.00 | 0.00 | 0.00 | 62 | 1003.5 |
| 20260509143849 | 62 | 238 | 3.5 | 6.1 | 0.00 | 0.00 | 0.00 | 64 | 1003.5 |
| 20260509143350 | 62 | 291 | 2.6 | 7.8 | 0.00 | 0.00 | 0.00 | 66 | 1003.5 |
| 20260509142849 | 61 | 205 | 1.7 | 7.8 | 0.00 | 0.00 | 0.00 | 67 | 1003.5 |
| 20260509142348 | 61 | 252 | 5.2 | 7.0 | 0.00 | 0.00 | 0.00 | 68 | 1003.5 |
| 20260509141848 | 60 | 216 | 3.5 | 4.3 | 0.00 | 0.00 | 0.00 | 71 | 1003.5 |
| 20260509141346 | 60 | 218 | 3.5 | 10.4 | 0.00 | 0.00 | 0.00 | 71 | 1003.5 |
| 20260509141106 | 60 | 241 | 0.9 | 10.4 | 0.00 | 0.00 | 0.00 | 72 | 1003.5 |
| 20260509140348 | 59 | 248 | 0.0 | 7.0 | 0.00 | 0.00 | 0.00 | 73 | 1003.5 |
| 20260509135845 | 59 | 229 | 4.3 | 7.0 | 0.00 | 0.00 | 0.00 | 74 | 1003.5 |
| 20260509135344 | 59 | 284 | 2.6 | 8.7 | 0.00 | 0.00 | 0.00 | 75 | 1003.5 |
| 20260509134847 | 59 | 235 | 6.1 | 8.7 | 0.00 | 0.00 | 0.00 | 77 | 1003.2 |
| 20260509134343 | 58 | 205 | 1.7 | 7.8 | 0.00 | 0.00 | 0.00 | 78 | 1003.5 |
| 20260509133843 | 58 | 238 | 3.5 | 7.0 | 0.00 | 0.00 | 0.00 | 78 | 1003.2 |
| 20260509133344 | 58 | 236 | 2.6 | 7.0 | 0.00 | 0.00 | 0.00 | 78 | 1003.2 |
| 20260509133320 | 57 | 342 | 0.0 | 7.0 | 0.00 | 0.00 | 0.00 | 79 | 1003.2 |
| 20260509132613 | 57 | 125 | 1.7 | 7.0 | 0.00 | 0.00 | 0.00 | 81 | 1003.2 |
| 20260509132109 | 56 | 151 | 1.7 | 4.3 | 0.00 | 0.00 | 0.00 | 83 | 1003.2 |
| 20260509131341 | 56 | 224 | 1.7 | 4.3 | 0.00 | 0.00 | 0.00 | 84 | 1003.2 |
| 20260509130842 | 55 | 218 | 2.6 | 4.3 | 0.00 | 0.00 | 0.00 | 86 | 1003.2 |
| 20260509130352 | 55 | 255 | 2.6 | 4.3 | 0.00 | 0.00 | 0.00 | 88 | 1003.2 |
| 20260509125840 | 54 | 274 | 0.0 | 4.3 | 0.00 | 0.00 | 0.00 | 89 | 1003.2 |
| 20260509125338 | 54 | 227 | 2.6 | 4.3 | 0.00 | 0.00 | 0.00 | 90 | 1003.5 |
| 20260509125316 | 53 | 165 | 3.5 | 7.0 | 0.00 | 0.00 | 0.00 | 91 | 1003.5 |
| 20260509124337 | 53 | 180 | 1.7 | 7.0 | 0.00 | 0.00 | 0.00 | 92 | 1003.5 |
| 20260509123839 | 53 | 207 | 0.9 | 5.2 | 0.00 | 0.00 | 0.00 | 93 | 1003.5 |
| 20260509123338 | 52 | 221 | 3.5 | 5.2 | 0.00 | 0.00 | 0.00 | 94 | 1003.2 |
| 20260509122837 | 52 | 196 | 1.7 | 4.3 | 0.00 | 0.00 | 0.00 | 95 | 1003.2 |
| 20260509122335 | 51 | 245 | 4.3 | 4.3 | 0.00 | 0.00 | 0.00 | 95 | 1003.2 |
| 20260509121835 | 51 | 199 | 1.7 | 4.3 | 0.00 | 0.00 | 0.00 | 96 | 1003.5 |
| 20260509121820 | 51 | 244 | 2.6 | 5.2 | 0.00 | 0.00 | 0.00 | 96 | 1003.5 |
| 20260509120835 | 51 | 238 | 0.0 | 5.2 | 0.00 | 0.00 | 0.00 | 96 | 1003.2 |
| 20260509120334 | 51 | 247 | 2.6 | 8.7 | 0.00 | 0.00 | 0.00 | 96 | 1003.2 |
| 20260509115833 | 50 | 237 | 4.3 | 8.7 | 0.00 | 0.00 | 0.00 | 96 | 1003.2 |
| 20260509115558 | 50 | 223 | 2.6 | 6.1 | 0.00 | 0.00 | 0.00 | 97 | 1003.5 |
| 20260509114834 | 50 | 226 | 1.7 | 6.1 | 0.00 | 0.00 | 0.00 | 97 | 1003.2 |
| 20260509114336 | 50 | 251 | 1.7 | 5.2 | 0.00 | 0.00 | 0.00 | 97 | 1003.2 |
| 20260509114049 | 50 | 226 | 0.9 | 5.2 | 0.00 | 0.00 | 0.00 | 96 | 1003.2 |
| 20260509113330 | 50 | 203 | 0.9 | 4.3 | 0.00 | 0.00 | 0.00 | 96 | 1002.9 |
| 20260509112830 | 49 | 225 | 2.6 | 4.3 | 0.00 | 0.00 | 0.00 | 96 | 1003.2 |
| 20260509112331 | 50 | 254 | 0.9 | 5.2 | 0.00 | 0.00 | 0.00 | 96 | 1002.9 |
| 20260509111830 | 50 | 231 | 1.7 | 5.2 | 0.00 | 0.00 | 0.00 | 96 | 1002.9 |
| 20260509111328 | 50 | 208 | 0.9 | 5.2 | 0.00 | 0.00 | 0.00 | 96 | 1002.9 |
| 20260509110828 | 50 | 201 | 0.0 | 5.2 | 0.00 | 0.00 | 0.00 | 96 | 1002.9 |
| 20260509110342 | 50 | 256 | 1.7 | 6.1 | 0.00 | 0.00 | 0.00 | 96 | 1002.9 |
| 20260509110048 | 50 | 213 | 1.7 | 6.1 | 0.00 | 0.00 | 0.00 | 96 | 1002.9 |
| 20260509105326 | 50 | 219 | 1.7 | 4.3 | 0.00 | 0.00 | 0.00 | 96 | 1002.5 |
| 20260509104825 | 50 | 204 | 3.5 | 5.2 | 0.00 | 0.00 | 0.00 | 95 | 1002.5 |
| 20260509104325 | 50 | 211 | 3.5 | 5.2 | 0.00 | 0.00 | 0.00 | 95 | 1002.5 |
| 20260509103825 | 50 | 226 | 2.6 | 6.1 | 0.00 | 0.00 | 0.00 | 95 | 1002.5 |
| 20260509103325 | 51 | 226 | 1.7 | 7.0 | 0.00 | 0.00 | 0.00 | 95 | 1002.5 |
| 20260509102825 | 51 | 205 | 2.6 | 7.0 | 0.00 | 0.00 | 0.00 | 95 | 1002.9 |
| 20260509102323 | 51 | 239 | 0.9 | 6.1 | 0.00 | 0.00 | 0.00 | 95 | 1002.9 |
| 20260509102043 | 51 | 248 | 4.3 | 6.1 | 0.00 | 0.00 | 0.00 | 95 | 1002.9 |
| 20260509101806 | 51 | 215 | 3.5 | 5.2 | 0.00 | 0.00 | 0.00 | 94 | 1002.9 |
| 20260509100822 | 51 | 244 | 2.6 | 5.2 | 0.00 | 0.00 | 0.00 | 94 | 1002.9 |
| 20260509100320 | 51 | 229 | 3.5 | 5.2 | 0.00 | 0.00 | 0.00 | 94 | 1002.9 |
| 20260509095820 | 51 | 227 | 2.6 | 4.3 | 0.00 | 0.00 | 0.00 | 94 | 1002.9 |
| 20260509095320 | 51 | 223 | 1.7 | 4.3 | 0.00 | 0.00 | 0.00 | 94 | 1002.5 |
| 20260509095047 | 51 | 212 | 3.5 | 6.1 | 0.00 | 0.00 | 0.00 | 94 | 1002.2 |
| 20260509094318 | 51 | 214 | 3.5 | 6.1 | 0.00 | 0.00 | 0.00 | 94 | 1002.5 |
| 20260509094044 | 51 | 223 | 1.7 | 4.3 | 0.00 | 0.00 | 0.00 | 94 | 1002.5 |
| 20260509093318 | 51 | 217 | 2.6 | 5.2 | 0.00 | 0.00 | 0.00 | 94 | 1002.5 |
| 20260509092818 | 51 | 224 | 1.7 | 5.2 | 0.00 | 0.00 | 0.00 | 94 | 1002.5 |
| 20260509092318 | 51 | 234 | 3.5 | 4.3 | 0.00 | 0.00 | 0.00 | 95 | 1002.5 |
| 20260509092043 | 51 | 223 | 3.5 | 5.2 | 0.00 | 0.00 | 0.00 | 95 | 1002.9 |
| 20260509091317 | 50 | 189 | 1.7 | 5.2 | 0.00 | 0.00 | 0.00 | 95 | 1002.9 |
| 20260509090815 | 50 | 213 | 2.6 | 6.1 | 0.00 | 0.00 | 0.00 | 95 | 1002.9 |
| 20260509090316 | 50 | 203 | 2.6 | 6.1 | 0.00 | 0.00 | 0.00 | 95 | 1003.2 |
| 20260509085814 | 50 | 256 | 1.7 | 5.2 | 0.00 | 0.00 | 0.00 | 94 | 1003.2 |
| 20260509085544 | 51 | 247 | 2.6 | 5.2 | 0.00 | 0.00 | 0.00 | 94 | 1003.2 |
| 20260509084813 | 51 | 236 | 1.7 | 7.8 | 0.00 | 0.00 | 0.00 | 94 | 1003.2 |
| 20260509084314 | 51 | 231 | 3.5 | 7.8 | 0.00 | 0.00 | 0.00 | 94 | 1003.2 |
| 20260509083812 | 51 | 207 | 2.6 | 5.2 | 0.00 | 0.00 | 0.00 | 94 | 1003.5 |
| 20260509083313 | 50 | 209 | 3.5 | 5.2 | 0.00 | 0.00 | 0.00 | 94 | 1003.2 |
| 20260509083037 | 50 | 237 | 1.7 | 4.3 | 0.00 | 0.00 | 0.00 | 94 | 1003.2 |
| 20260509082312 | 50 | 242 | 1.7 | 4.3 | 0.00 | 0.00 | 0.00 | 93 | 1003.2 |
| 20260509082031 | 50 | 252 | 1.7 | 3.5 | 0.00 | 0.00 | 0.00 | 93 | 1003.2 |
| 20260509081309 | 50 | 180 | 1.7 | 3.5 | 0.00 | 0.00 | 0.00 | 93 | 1003.2 |
| 20260509080810 | 50 | 215 | 0.0 | 3.5 | 0.00 | 0.00 | 0.00 | 93 | 1003.2 |
| 20260509080309 | 50 | 194 | 3.5 | 3.5 | 0.00 | 0.00 | 0.00 | 93 | 1003.2 |